TimeEDT,TemperatureF,Dew PointF,Humidity,Sea Level PressureIn,VisibilityMPH,Wind Direction,Wind SpeedMPH,Gust SpeedMPH,PrecipitationIn,Events,Conditions,WindDirDegrees,DateUTC
12:56 AM,70.3,65.7,85,30.13,7.0,NE,3.5,-,N/A,,Scattered Clouds,50,2013-06-20 04:56:00
1:56 AM,68.7,65.5,89,30.14,12.0,ENE,3.5,-,N/A,,Clear,70,2013-06-20 05:56:00
2:56 AM,66.7,64.6,93,30.14,8.0,NE,3.5,-,N/A,,Clear,40,2013-06-20 06:56:00
3:56 AM,66.0,64.0,93,30.15,7.0,NE,3.5,-,N/A,,Clear,50,2013-06-20 07:56:00
4:56 AM,65.7,63.7,93,30.15,9.0,ENE,3.5,-,N/A,,Clear,60,2013-06-20 08:56:00
5:56 AM,63.9,62.6,96,30.17,4.0,North,5.8,-,N/A,,Clear,10,2013-06-20 09:56:00
6:56 AM,65.1,63.7,95,30.19,6.0,NE,5.8,-,N/A,,Partly Cloudy,40,2013-06-20 10:56:00
7:56 AM,67.5,64.0,89,30.22,12.0,NNE,8.1,-,N/A,,Clear,30,2013-06-20 11:56:00
8:56 AM,70.9,61.7,73,30.23,12.0,NE,10.4,-,N/A,,Clear,40,2013-06-20 12:56:00
9:56 AM,74.7,61.2,63,30.23,12.0,ENE,8.1,-,N/A,,Clear,70,2013-06-20 13:56:00
10:55 AM,77.0,59.0,54,30.23,12.0,NE,8.1,15.0,N/A,,Clear,50,2013-06-20 14:55:00
11:55 AM,78.8,60.8,54,30.23,12.0,ENE,11.5,-,N/A,,Clear,70,2013-06-20 15:55:00
12:54 PM,80.6,60.8,51,30.23,12.0,Variable,4.6,15.0,N/A,,Clear,0,2013-06-20 16:54:00
1:54 PM,82.4,59.0,45,30.22,12.0,NE,9.2,17.3,N/A,,Clear,50,2013-06-20 17:54:00
2:54 PM,84.2,57.2,40,30.22,12.0,ENE,8.1,15.0,N/A,,Clear,60,2013-06-20 18:54:00
3:55 PM,84.2,59.0,42,30.21,12.0,East,9.2,13.8,N/A,,Clear,90,2013-06-20 19:55:00
4:55 PM,84.2,57.2,40,30.20,12.0,East,6.9,-,N/A,,Clear,80,2013-06-20 20:55:00
8:56 PM,74.5,62.6,66,30.21,12.0,NE,4.6,-,N/A,,Clear,40,2013-06-21 00:56:00
9:56 PM,71.8,62.6,73,30.21,12.0,NE,4.6,-,N/A,,Clear,50,2013-06-21 01:56:00
10:56 PM,72.0,61.7,70,30.23,12.0,NE,4.6,-,N/A,,Clear,50,2013-06-21 02:56:00
11:56 PM,70.9,59.9,68,30.23,12.0,NE,5.8,-,N/A,,Clear,50,2013-06-21 03:56:00